Tracking 35274 objects as of 11-Sep-2026
HD Live streaming from Space Station
objects crossing your sky now

COSMOS 1813 DEB


COSMOS 1813 DEB is no longer on orbit


NORAD ID: 17493
Int'l Code: 1987-004AH
Launch date: January 15, 1987
Source: Commonwealth of Independent States (former USSR) (CIS)
Launch site: PLESETSK MISSILE AND SPACE COMPLEX (PKMTR)
Decay date: 1988-11-03

Note: This is SATELLITE DEBRIS
Your satellite tracking list
Your tracking list is empty




NASA's NSSDC Master Catalog

Two Line Element Set (TLE):
1 17493U 87004 AH 88308.00998538  .09614529 +80999-5 +13411-2 0  9990
2 17493 072.8242 182.8500 0009828 130.1497 232.8046 16.34744541099380
Source of the keplerian elements: AFSPC